When you browse on this site, cookies collect data to enhance your experience and personalize the content and advertising you see.
Visit our Privacy Policy to learn more. By continuing to use the site, you agree to this use of cookies and data.
  • In Hungary
  • List of Countries
  • For 7 days
  • Water Temperature
  • Weather Map
  • News
  • Weather Widgets
  • user-avatar
    Login

    Hourly Weather Potiivka

    Today, 1 June, Monday

    Time Temperature Precipitation Wind Pressure Humidity
    00:00 +10°C° 0.1 mm 4 mps 739 mmHg 95%
    01:00 +10°C° 0.1 mm 4 mps 739 mmHg 95%
    02:00 +9°C° 0 mm 5 mps 740 mmHg 96%
    03:00 +9°C° 0.3 mm 5 mps 740 mmHg 95%
    04:00 +8°C° 0.3 mm 6 mps 739 mmHg 94%
    05:00 +8°C° 0.3 mm 7 mps 739 mmHg 93%
    06:00 +8°C° 0.1 mm 7 mps 740 mmHg 91%
    07:00 +9°C° 0.1 mm 6 mps 740 mmHg 88%
    08:00 +10°C° 0 mm 6 mps 741 mmHg 86%
    09:00 +10°C° 0.4 mm 6 mps 741 mmHg 82%
    10:00 +11°C° 0.4 mm 6 mps 741 mmHg 79%
    11:00 +11°C° 0.4 mm 6 mps 740 mmHg 75%
    12:00 +13°C° 0.4 mm 6 mps 740 mmHg 73%
    13:00 +13°C° 0.4 mm 6 mps 740 mmHg 70%
    14:00 +13°C° 0.4 mm 6 mps 740 mmHg 68%
    15:00 +13°C° 0.2 mm 6 mps 740 mmHg 68%
    16:00 +13°C° 0.2 mm 5 mps 740 mmHg 68%
    17:00 +13°C° 0.2 mm 5 mps 740 mmHg 68%
    18:00 +10°C° 0.2 mm 5 mps 740 mmHg 75%
    19:00 +9°C° 0.2 mm 5 mps 740 mmHg 81%
    20:00 +7°C° 0.2 mm 4 mps 740 mmHg 87%
    21:00 +6°C° 0 mm 4 mps 739 mmHg 90%
    22:00 +5°C° 0 mm 3 mps 739 mmHg 93%
    23:00 +4°C° 0 mm 3 mps 739 mmHg 97%

    Tomorrow, 2 June, Tuesday

    Time Temperature Precipitation Wind Pressure Humidity
    00:00 +5°C° 0.1 mm 3 mps 738 mmHg 96%
    01:00 +5°C° 0.1 mm 3 mps 738 mmHg 96%
    02:00 +5°C° 0.1 mm 3 mps 738 mmHg 96%
    03:00 +5°C° 0.2 mm 3 mps 737 mmHg 96%
    04:00 +7°C° 0.2 mm 3 mps 737 mmHg 96%
    05:00 +7°C° 0.2 mm 3 mps 736 mmHg 95%
    06:00 +8°C° 0 mm 3 mps 736 mmHg 93%
    07:00 +8°C° 0 mm 3 mps 736 mmHg 90%
    08:00 +9°C° 0 mm 3 mps 736 mmHg 88%
    09:00 +10°C° 0.4 mm 4 mps 736 mmHg 85%
    10:00 +11°C° 0.4 mm 4 mps 736 mmHg 82%
    11:00 +11°C° 0.4 mm 4 mps 736 mmHg 79%
    12:00 +12°C° 0.6 mm 5 mps 736 mmHg 77%
    13:00 +12°C° 0.6 mm 5 mps 735 mmHg 76%
    14:00 +13°C° 0.6 mm 6 mps 735 mmHg 74%
    15:00 +12°C° 0.4 mm 5 mps 735 mmHg 76%
    16:00 +12°C° 0.4 mm 5 mps 735 mmHg 77%
    17:00 +12°C° 0.4 mm 5 mps 735 mmHg 79%
    18:00 +10°C° 0.1 mm 5 mps 735 mmHg 82%
    19:00 +9°C° 0.1 mm 5 mps 735 mmHg 86%
    20:00 +8°C° 0.1 mm 4 mps 735 mmHg 89%
    21:00 +7°C° 0 mm 4 mps 735 mmHg 91%
    22:00 +7°C° 0 mm 4 mps 735 mmHg 92%
    23:00 +6°C° 0 mm 4 mps 735 mmHg 94%

    Day after tomorrow, 3 June, Wednesday

    Time Temperature Precipitation Wind Pressure Humidity
    00:00 +6°C° 0.1 mm 4 mps 735 mmHg 94%
    01:00 +6°C° 0.1 mm 4 mps 735 mmHg 93%
    02:00 +6°C° 0.1 mm 4 mps 736 mmHg 93%
    03:00 +6°C° 0.3 mm 4 mps 735 mmHg 94%
    04:00 +6°C° 0.3 mm 4 mps 735 mmHg 94%
    05:00 +6°C° 0.3 mm 4 mps 735 mmHg 94%
    06:00 +7°C° 0.2 mm 4 mps 735 mmHg 92%
    07:00 +7°C° 0.2 mm 4 mps 735 mmHg 90%
    08:00 +8°C° 0.2 mm 4 mps 736 mmHg 89%
    09:00 +10°C° 0.3 mm 4 mps 736 mmHg 86%
    10:00 +11°C° 0.3 mm 4 mps 736 mmHg 83%
    11:00 +12°C° 0.3 mm 4 mps 736 mmHg 81%
    12:00 +12°C° 0.5 mm 4 mps 736 mmHg 79%
    13:00 +13°C° 0.5 mm 4 mps 736 mmHg 77%
    14:00 +14°C° 0.5 mm 4 mps 736 mmHg 75%
    15:00 +14°C° 0.2 mm 3 mps 735 mmHg 74%
    16:00 +14°C° 0.2 mm 3 mps 735 mmHg 73%
    17:00 +16°C° 0.2 mm 3 mps 735 mmHg 72%
    18:00 +14°C° 0 mm 2 mps 735 mmHg 77%
    19:00 +13°C° 0 mm 2 mps 735 mmHg 83%
    20:00 +10°C° 0 mm 2 mps 735 mmHg 88%
    21:00 +10°C° 0 mm 2 mps 736 mmHg 90%
    22:00 +9°C° 0 mm 2 mps 736 mmHg 91%
    23:00 +8°C° 0 mm 2 mps 736 mmHg 93%

    4 June, Thursday

    Time Temperature Precipitation Wind Pressure Humidity
    00:00 +8°C° 0 mm 2 mps 736 mmHg 94%
    01:00 +7°C° 0 mm 2 mps 736 mmHg 95%
    02:00 +7°C° 0 mm 3 mps 736 mmHg 96%
    03:00 +7°C° 0 mm 3 mps 736 mmHg 96%
    04:00 +7°C° 0 mm 3 mps 736 mmHg 96%
    05:00 +7°C° 0 mm 3 mps 736 mmHg 97%
    06:00 +8°C° 0 mm 3 mps 736 mmHg 92%
    07:00 +10°C° 0 mm 4 mps 736 mmHg 88%
    08:00 +12°C° 0 mm 4 mps 736 mmHg 83%
    09:00 +13°C° 0.4 mm 4 mps 736 mmHg 79%
    10:00 +14°C° 0.4 mm 5 mps 736 mmHg 75%
    11:00 +15°C° 0.4 mm 5 mps 736 mmHg 71%
    12:00 +16°C° 0.5 mm 5 mps 736 mmHg 70%
    13:00 +16°C° 0.5 mm 5 mps 736 mmHg 70%
    14:00 +16°C° 0.5 mm 5 mps 736 mmHg 69%
    15:00 +16°C° 0.2 mm 5 mps 736 mmHg 70%
    16:00 +16°C° 0.2 mm 5 mps 736 mmHg 71%
    17:00 +16°C° 0.2 mm 5 mps 736 mmHg 72%
    18:00 +15°C° 0.2 mm 4 mps 736 mmHg 77%
    19:00 +14°C° 0.2 mm 4 mps 736 mmHg 83%
    20:00 +12°C° 0.2 mm 3 mps 736 mmHg 88%
    21:00 +12°C° 0.2 mm 3 mps 736 mmHg 89%
    22:00 +12°C° 0.2 mm 3 mps 736 mmHg 90%
    23:00 +11°C° 0.2 mm 3 mps 736 mmHg 91%

    5 June, Friday

    Time Temperature Precipitation Wind Pressure Humidity
    00:00 +11°C° 0.1 mm 3 mps 736 mmHg 92%
    01:00 +10°C° 0.1 mm 3 mps 735 mmHg 92%
    02:00 +10°C° 0.1 mm 2 mps 735 mmHg 93%
    03:00 +10°C° 0.1 mm 2 mps 735 mmHg 93%
    04:00 +10°C° 0.1 mm 2 mps 735 mmHg 93%
    05:00 +10°C° 0.1 mm 2 mps 736 mmHg 93%
    06:00 +13°C° 0 mm 2 mps 736 mmHg 89%
    07:00 +14°C° 0 mm 2 mps 736 mmHg 85%
    08:00 +16°C° 0 mm 2 mps 736 mmHg 81%
    09:00 +18°C° 0 mm 2 mps 736 mmHg 76%
    10:00 +19°C° 0 mm 3 mps 736 mmHg 71%
    11:00 +21°C° 0 mm 3 mps 737 mmHg 66%
    12:00 +21°C° 0.2 mm 3 mps 737 mmHg 66%
    13:00 +22°C° 0.2 mm 4 mps 737 mmHg 66%
    14:00 +22°C° 0.2 mm 4 mps 737 mmHg 66%
    15:00 +22°C° 0.3 mm 4 mps 737 mmHg 70%
    16:00 +21°C° 0.3 mm 3 mps 737 mmHg 73%
    17:00 +21°C° 0.3 mm 3 mps 737 mmHg 77%
    18:00 +20°C° 0.1 mm 2 mps 737 mmHg 81%
    19:00 +18°C° 0.1 mm 2 mps 737 mmHg 85%
    20:00 +17°C° 0.1 mm 2 mps 737 mmHg 90%
    21:00 +17°C° 0 mm 2 mps 737 mmHg 90%
    22:00 +16°C° 0 mm 2 mps 737 mmHg 90%
    23:00 +15°C° 0 mm 2 mps 737 mmHg 90%

    6 June, Saturday

    Time Temperature Precipitation Wind Pressure Humidity
    00:00 +15°C° 0 mm 2 mps 737 mmHg 91%
    01:00 +15°C° 0 mm 2 mps 737 mmHg 92%
    02:00 +14°C° 0 mm 3 mps 737 mmHg 93%
    03:00 +14°C° 0 mm 3 mps 737 mmHg 93%
    04:00 +14°C° 0 mm 3 mps 737 mmHg 93%
    05:00 +14°C° 0 mm 3 mps 737 mmHg 93%
    06:00 +17°C° 0 mm 3 mps 737 mmHg 90%
    07:00 +18°C° 0 mm 4 mps 737 mmHg 87%
    08:00 +20°C° 0 mm 4 mps 737 mmHg 84%
    09:00 +21°C° 0.9 mm 5 mps 737 mmHg 79%
    10:00 +23°C° 0.9 mm 5 mps 737 mmHg 74%
    11:00 +25°C° 0.9 mm 5 mps 737 mmHg 69%
    12:00 +23°C° 1.3 mm 5 mps 737 mmHg 73%
    13:00 +22°C° 1.3 mm 4 mps 737 mmHg 78%
    14:00 +21°C° 1.3 mm 3 mps 736 mmHg 82%
    15:00 +21°C° 0.6 mm 3 mps 736 mmHg 83%
    16:00 +21°C° 0.6 mm 2 mps 736 mmHg 83%
    17:00 +21°C° 0.6 mm 2 mps 736 mmHg 84%
    18:00 +20°C° 0.7 mm 2 mps 736 mmHg 87%
    19:00 +19°C° 0.7 mm 2 mps 737 mmHg 89%
    20:00 +18°C° 0.7 mm 3 mps 737 mmHg 92%
    21:00 +18°C° 0.1 mm 3 mps 737 mmHg 93%
    22:00 +17°C° 0.1 mm 2 mps 737 mmHg 94%
    23:00 +17°C° 0.1 mm 2 mps 737 mmHg 95%
    Show more